Regional Weather Roundup
Issued by NWS Bismarck, ND

Home | Current Version | Previous Version | Text Only | Print | Product List | Glossary On
Versions: 1 2 3 4 5 6 7 8 9 10 11 12 13 14 15 16 17 18 19 20 21 22 23 24 25 26 27 28 29 30 31 32 33 34 35 36 37 38 39 40 41 42 43 44 45 46 47 48 49 50
000
ASUS43 KBIS 261910
RWRBIS

NWR BROADCAST TEXT
NATIONAL WEATHER SERVICE BISMARCK ND
200 PM CDT MON SEP 26 2016

NOTE: "FAIR" INDICATES FEW OR NO CLOUDS BELOW 12,000 FEET WITH NO
SIGNIFICANT WEATHER AND/OR OBSTRUCTIONS TO VISIBILITY.


CITY           SKY/WX    TMP DP  RH WIND       PRES   REMARKS
WILLISTON      SUNNY     67  35  30 NW16G23   30.19F
MINOT          SUNNY     65  35  33 NW17G26   30.11F
MINOT AFB      SUNNY     64  35  33 NW23G31   30.09F
BISMARCK       SUNNY     67  34  29 NW17G26   30.14F
DICKINSON      SUNNY     64  32  30 NW18G24   30.18F
GARRISON         N/A     64  33  31 NW22G32   30.13F
HETTINGER ARPT SUNNY     67  38  34 NW17      30.21F
JAMESTOWN      SUNNY     63  34  33 NW30G39   30.03F
CARRINGTON     FAIR      64  32  29 NW30G39   30.06F
HAZEN          FAIR      64  36  34 NW18G26   30.17F
LINTON         FAIR      66  37  34 NW21G30   30.14F
MANDAN         FAIR      64  32  29 NW18G28   30.14F
RUGBY          FAIR      63  32  31 NW25G35   30.04F
STANLEY        FAIR      63  34  34 NW15G29   30.17F
WATFORD CITY   FAIR      64  36  34 NW12G18   30.19F
$$

CITY           SKY/WX    TMP DP  RH WIND       PRES   REMARKS
GRAND FORKS    MOSUNNY   62  40  44 NW28G36   29.92F
GRAND FORKS AF SUNNY     62  38  41 NW20G30   29.93F
DEVILS LAKE    SUNNY     61  31  32 NW28G37   30.00F
FARGO          SUNNY     65  31  28 NW29G38   29.94F
CANDO          FAIR      64  27  24 NW23G31   30.03F
CAVALIER       FAIR      59  41  51 NW23G32   29.92S
GRAFTON        FAIR      61  43  51 NW23G31   29.94S
GWINNER        FAIR      66  34  30 NW28G35   30.03F
LANGDON        FAIR      59  39  47 NW23G35   29.96F
ROLLA          FAIR      59  23  25 NW28G43   30.01F
WALHALLA       FAIR      59  55  88 NW21G33   29.93F
$$

CITY           SKY/WX    TMP DP  RH WIND       PRES   REMARKS
ABERDEEN       SUNNY     70  30  22 NW22G31   30.09F
MOBRIDGE       SUNNY     71  35  26 NW18G28   30.11F
BUFFALO          N/A     66  43  43 NW22      30.16F
RAPID CITY     SUNNY     73  40  30 N23G30    30.23F
GLASGOW        SUNNY     67  43  41 W8        30.22F
SIDNEY         SUNNY     67  36  31 NW10      30.20F
WOLF POINT     SUNNY     68  38  33 SW12      30.21F
GLENDIVE       SUNNY     65  38  36 N7        30.23F
MILES CITY     SUNNY     69  39  33 W8        30.25F
BAKER          SUNNY     63  44  50 W12       30.25F
$$

CITY           SKY/WX    TMP DP  RH WIND       PRES   REMARKS
BILLINGS       MOSUNNY   67  43  41 SW13      30.30F
GREAT FALLS    SUNNY     74  41  30 SW15      30.23F
REGINA         MOSUNNY   63  36  36 NW12G20   30.15F
ESTEVAN        MOSUNNY   64  34  32 NW21G26   30.14F
$$




USA.gov is the U.S. government's official web portal to all federal, state and local government web resources and services.